Terminal Aerodrome Forecast
Issued by NWS Spokane, WA

Home | Current Version | Previous Version | Text Only | Print | Product List | Glossary On
Versions: 1 2 3 4 5 6 7 8 9 10 11 12 13 14 15 16 17 18 19 20 21 22 23 24 25 26 27 28 29 30 31
000
FTUS46 KOTX 220531
TAFLWS
TAF
KLWS 220531Z 2206/2306 14004KT P6SM VCSH SCT100 BKN150
     FM222000 30007KT P6SM -SHRA VCTS SCT070CB BKN100
     FM230300 23005KT P6SM VCSH SCT070 BKN120=

USA.gov is the U.S. government's official web portal to all federal, state and local government web resources and services.